DAL123 KLAX-KSAN

Flight info

Callsign DAL123
Flight time N/A
Altitude 13000
Route LAXX1 MZB
Aircraft A320/M-SDE3FGHIRWY/LB1

Departure

Time 2026-04-25 20:43
Airport Los Angeles International Airport (KLAX)

Arrival

Time N/A
Airport San Diego International Airport (KSAN)
Time Latitude Longitude Altitude Speed Heading
2026-04-25 20:08 33.94673 -118.40335 122 ft 0 kts 263°
2026-04-25 20:33 33.94673 -118.40334 121 ft 2 kts 263°
2026-04-25 20:33 33.94675 -118.40303 122 ft 4 kts 270°
2026-04-25 20:33 33.94674 -118.40282 122 ft 4 kts 281°
2026-04-25 20:34 33.94660 -118.40248 120 ft 4 kts 343°
2026-04-25 20:34 33.94650 -118.40246 122 ft 1 kts 353°
2026-04-25 20:39 33.94658 -118.40247 126 ft 3 kts 353°
2026-04-25 20:39 33.94671 -118.40249 124 ft 3 kts 353°
2026-04-25 20:40 33.94697 -118.40252 123 ft 4 kts 353°
2026-04-25 20:40 33.94732 -118.40257 124 ft 8 kts 353°
2026-04-25 20:40 33.94771 -118.40263 123 ft 3 kts 353°
2026-04-25 20:40 33.94809 -118.40269 124 ft 9 kts 351°
2026-04-25 20:41 33.94875 -118.40284 125 ft 9 kts 15°
2026-04-25 20:41 33.94903 -118.40229 126 ft 8 kts 84°
2026-04-25 20:41 33.94909 -118.40154 126 ft 15 kts 84°
2026-04-25 20:41 33.94925 -118.40005 126 ft 18 kts 83°
2026-04-25 20:42 33.94956 -118.39922 124 ft 8 kts 37°
2026-04-25 20:42 33.95032 -118.39915 123 ft 10 kts 334°
2026-04-25 20:42 33.95041 -118.39968 122 ft 0 kts 262°
2026-04-25 20:42 33.95041 -118.39973 123 ft 4 kts 262°
2026-04-25 20:43 33.95007 -118.40289 126 ft 77 kts 263°
2026-04-25 20:43 33.94913 -118.41190 124 ft 138 kts 263°
2026-04-25 20:43 33.94793 -118.42452 553 ft 157 kts 258°
2026-04-25 20:43 33.94679 -118.43828 1110 ft 175 kts 262°
2026-04-25 20:44 33.94547 -118.45383 1647 ft 198 kts 263°
2026-04-25 20:44 33.94355 -118.47098 2163 ft 217 kts 260°
2026-04-25 20:44 33.94111 -118.48992 2784 ft 240 kts 260°
2026-04-25 20:44 33.93854 -118.51014 3571 ft 253 kts 261°
2026-04-25 20:45 33.93496 -118.53111 4569 ft 258 kts 247°
2026-04-25 20:45 33.92458 -118.54881 5501 ft 263 kts 220°
2026-04-25 20:45 33.90848 -118.55938 6507 ft 268 kts 202°
2026-04-25 20:45 33.89083 -118.56725 7474 ft 270 kts 201°
2026-04-25 20:46 33.87319 -118.57472 8475 ft 272 kts 201°
2026-04-25 20:46 33.85503 -118.58235 9470 ft 274 kts 201°
2026-04-25 20:46 33.83706 -118.58986 10297 ft 282 kts 201°
2026-04-25 20:46 33.81770 -118.59789 10627 ft 306 kts 201°
2026-04-25 20:47 33.79672 -118.60656 10905 ft 329 kts 201°
2026-04-25 20:47 33.77372 -118.61155 11500 ft 344 kts 182°
2026-04-25 20:47 33.74978 -118.60702 12328 ft 351 kts 172°
2026-04-25 20:47 33.72624 -118.60018 12800 ft 352 kts 171°
2026-04-25 20:48 33.70248 -118.59276 12960 ft 353 kts 168°
2026-04-25 20:48 33.68017 -118.57951 12997 ft 365 kts 150°
2026-04-25 20:48 33.66240 -118.55713 13002 ft 379 kts 129°
2026-04-25 20:48 33.64854 -118.53005 13001 ft 381 kts 127°
2026-04-25 20:49 33.63487 -118.50263 13003 ft 382 kts 127°
2026-04-25 20:49 33.62129 -118.47529 13002 ft 382 kts 127°
2026-04-25 20:49 33.60769 -118.44794 13000 ft 381 kts 127°
2026-04-25 20:49 33.59410 -118.42071 13002 ft 381 kts 127°
2026-04-25 20:50 33.58038 -118.39342 13000 ft 381 kts 127°
2026-04-25 20:50 33.56667 -118.36621 12989 ft 377 kts 128°
2026-04-25 20:50 33.55367 -118.34027 12996 ft 358 kts 128°
2026-04-25 20:50 33.54120 -118.31532 12995 ft 340 kts 128°
2026-04-25 20:51 33.52932 -118.29160 13001 ft 324 kts 128°
2026-04-25 20:51 33.51793 -118.26901 13000 ft 309 kts 129°
2026-04-25 20:51 33.50704 -118.24741 13001 ft 295 kts 129°
2026-04-25 20:51 33.49667 -118.22686 13000 ft 282 kts 130°
2026-04-25 20:52 33.48672 -118.20717 12998 ft 268 kts 130°
2026-04-25 20:52 33.48038 -118.19464 13000 ft 264 kts 130°
2026-04-25 20:52 33.46776 -118.16989 13004 ft 262 kts 131°
2026-04-25 20:52 33.45825 -118.15130 13004 ft 262 kts 131°
2026-04-25 20:53 33.44872 -118.13265 13004 ft 262 kts 131°
2026-04-25 20:53 33.43923 -118.11407 13000 ft 262 kts 131°
2026-04-25 20:53 33.42977 -118.09547 13000 ft 262 kts 130°
2026-04-25 20:53 33.42013 -118.07659 13008 ft 278 kts 130°
2026-04-25 20:54 33.40984 -118.05659 12988 ft 278 kts 130°
2026-04-25 20:54 33.40011 -118.03727 12997 ft 267 kts 130°
2026-04-25 20:54 33.39055 -118.01824 12989 ft 264 kts 130°
2026-04-25 20:54 33.38116 -117.99972 12998 ft 263 kts 131°
2026-04-25 20:55 33.37164 -117.98102 13000 ft 263 kts 131°
2026-04-25 20:55 33.36199 -117.96208 13001 ft 263 kts 131°
2026-04-25 20:55 33.35259 -117.94367 12999 ft 263 kts 131°
2026-04-25 20:55 33.34295 -117.92478 12996 ft 263 kts 131°
2026-04-25 20:56 33.33352 -117.90632 12998 ft 263 kts 131°
2026-04-25 20:56 33.32399 -117.88766 13003 ft 263 kts 131°
2026-04-25 20:56 33.31446 -117.86903 13003 ft 263 kts 131°
2026-04-25 20:56 33.30492 -117.85036 13005 ft 263 kts 131°
2026-04-25 20:57 33.29504 -117.83120 13016 ft 285 kts 131°
2026-04-25 20:57 33.28471 -117.81117 12996 ft 277 kts 130°
2026-04-25 20:57 33.27496 -117.79187 13000 ft 266 kts 130°
2026-04-25 20:57 33.26545 -117.77309 13004 ft 263 kts 131°
2026-04-25 20:58 33.25591 -117.75443 13006 ft 263 kts 131°
2026-04-25 20:58 33.24636 -117.73581 13006 ft 263 kts 131°
2026-04-25 20:58 33.23672 -117.71708 12757 ft 266 kts 130°
2026-04-25 20:58 33.22729 -117.69867 12647 ft 261 kts 130°
2026-04-25 20:59 33.21772 -117.68001 12593 ft 260 kts 130°
2026-04-25 20:59 33.20838 -117.66182 12533 ft 260 kts 130°
2026-04-25 20:59 33.19890 -117.64340 12472 ft 259 kts 130°
2026-04-25 20:59 33.18943 -117.62501 12415 ft 259 kts 130°
2026-04-25 21:00 33.18001 -117.60667 12355 ft 259 kts 130°
2026-04-25 21:00 33.17683 -117.60049 12334 ft 259 kts 130°
2026-04-25 21:00 33.15180 -117.55182 12181 ft 258 kts 130°
2026-04-25 21:01 33.14242 -117.53355 12126 ft 258 kts 130°
2026-04-25 21:01 33.13306 -117.51531 12064 ft 258 kts 130°
2026-04-25 21:01 33.12363 -117.49702 11760 ft 259 kts 130°
2026-04-25 21:01 33.11406 -117.47859 11460 ft 259 kts 129°
2026-04-25 21:02 33.10485 -117.46078 11372 ft 254 kts 129°
2026-04-25 21:02 33.09555 -117.44281 11322 ft 254 kts 129°
2026-04-25 21:02 33.08628 -117.42488 11268 ft 254 kts 129°
2026-04-25 21:02 33.07701 -117.40697 11174 ft 252 kts 129°
2026-04-25 21:03 33.06781 -117.38920 10872 ft 251 kts 129°
2026-04-25 21:03 33.05868 -117.37156 10620 ft 250 kts 129°
2026-04-25 21:03 33.04921 -117.35424 10371 ft 246 kts 135°
2026-04-25 21:03 33.03766 -117.33958 10164 ft 239 kts 147°
2026-04-25 21:04 33.02428 -117.32827 9939 ft 231 kts 158°
2026-04-25 21:04 33.00981 -117.32050 9818 ft 227 kts 167°
2026-04-25 21:04 32.99483 -117.31431 9684 ft 227 kts 167°
2026-04-25 21:04 32.98006 -117.30817 9558 ft 227 kts 167°
2026-04-25 21:05 32.96514 -117.30195 9434 ft 227 kts 166°
2026-04-25 21:05 32.95024 -117.29574 9303 ft 227 kts 166°
2026-04-25 21:05 32.93531 -117.28944 9173 ft 228 kts 163°
2026-04-25 21:05 32.92239 -117.27829 9023 ft 237 kts 132°
2026-04-25 21:06 32.91561 -117.26020 8667 ft 244 kts 106°
2026-04-25 21:06 32.91269 -117.24022 8351 ft 245 kts 101°
2026-04-25 21:06 32.91026 -117.22008 8080 ft 244 kts 101°
2026-04-25 21:06 32.90869 -117.20687 7941 ft 242 kts 101°
2026-04-25 21:07 32.90549 -117.18051 7520 ft 239 kts 100°
2026-04-25 21:07 32.90306 -117.16120 7187 ft 239 kts 101°
2026-04-25 21:07 32.90065 -117.14156 6904 ft 240 kts 99°
2026-04-25 21:07 32.89811 -117.12203 6684 ft 237 kts 100°
2026-04-25 21:08 32.89548 -117.10277 6440 ft 234 kts 100°
2026-04-25 21:08 32.89276 -117.08377 6141 ft 233 kts 100°
2026-04-25 21:08 32.89008 -117.06484 5801 ft 231 kts 101°
2026-04-25 21:08 32.88749 -117.04592 5477 ft 230 kts 101°
2026-04-25 21:09 32.88244 -117.00878 4996 ft 222 kts 100°
2026-04-25 21:09 32.87990 -116.99064 4981 ft 224 kts 101°
2026-04-25 21:09 32.87739 -116.97223 4982 ft 226 kts 101°
2026-04-25 21:10 32.87488 -116.95374 4978 ft 227 kts 101°
2026-04-25 21:10 32.87245 -116.93541 4981 ft 226 kts 101°
2026-04-25 21:10 32.86995 -116.91695 4978 ft 226 kts 100°
2026-04-25 21:10 32.86721 -116.89868 4977 ft 223 kts 108°
2026-04-25 21:11 32.85917 -116.88333 4981 ft 218 kts 143°
2026-04-25 21:11 32.84559 -116.87636 4982 ft 214 kts 178°
2026-04-25 21:11 32.83104 -116.87872 4979 ft 211 kts 198°
2026-04-25 21:11 32.81700 -116.88396 4984 ft 211 kts 200°
2026-04-25 21:12 32.80316 -116.88944 4829 ft 210 kts 200°
2026-04-25 21:12 32.78933 -116.89503 4472 ft 210 kts 200°
2026-04-25 21:12 32.77555 -116.90062 4171 ft 208 kts 200°
2026-04-25 21:12 32.76644 -116.90427 3993 ft 208 kts 200°
2026-04-25 21:13 32.74831 -116.91153 3833 ft 202 kts 199°
2026-04-25 21:13 32.73511 -116.91684 3767 ft 196 kts 200°
2026-04-25 21:13 32.72351 -116.92420 3763 ft 185 kts 230°
2026-04-25 21:13 32.71714 -116.93705 3787 ft 183 kts 246°
2026-04-25 21:14 32.71265 -116.95107 3783 ft 181 kts 250°
2026-04-25 21:14 32.70848 -116.96520 3770 ft 181 kts 251°
2026-04-25 21:14 32.70461 -116.97952 3773 ft 182 kts 259°
2026-04-25 21:14 32.70517 -116.99436 3780 ft 181 kts 278°
2026-04-25 21:15 32.70770 -117.00834 3810 ft 165 kts 279°
2026-04-25 21:15 32.71036 -117.02094 3754 ft 148 kts 280°
2026-04-25 21:15 32.71289 -117.03234 3614 ft 137 kts 278°
2026-04-25 21:15 32.71440 -117.04319 3396 ft 132 kts 273°
2026-04-25 21:16 32.71417 -117.05384 3132 ft 130 kts 261°
2026-04-25 21:16 32.71255 -117.06438 2901 ft 130 kts 258°
2026-04-25 21:16 32.71107 -117.07505 2745 ft 130 kts 264°
2026-04-25 21:16 32.71052 -117.08567 2517 ft 130 kts 269°
2026-04-25 21:17 32.71126 -117.09650 2206 ft 134 kts 277°
2026-04-25 21:17 32.71376 -117.10726 1912 ft 135 kts 283°
2026-04-25 21:17 32.71645 -117.11805 1563 ft 139 kts 282°
2026-04-25 21:17 32.71904 -117.12945 1129 ft 146 kts 284°
2026-04-25 21:18 32.72190 -117.14098 828 ft 145 kts 283°
2026-04-25 21:18 32.72475 -117.15247 529 ft 145 kts 282°
2026-04-25 21:18 32.72739 -117.16374 298 ft 135 kts 281°
2026-04-25 21:18 32.73023 -117.17604 449 ft 171 kts 281°
2026-04-25 21:19 32.73368 -117.19020 1041 ft 193 kts 285°
2026-04-25 21:19 32.73768 -117.20694 1564 ft 229 kts 282°
2026-04-25 21:19 32.74148 -117.22699 2138 ft 267 kts 281°
2026-04-25 21:19 32.74540 -117.24874 2442 ft 260 kts 281°
2026-04-25 21:20 32.74906 -117.26898 2492 ft 241 kts 281°
2026-04-25 21:20 32.75025 -117.27548 2476 ft 235 kts 281°
2026-04-25 21:20 32.75573 -117.30541 2481 ft 213 kts 281°
2026-04-25 21:20 32.75881 -117.32218 2476 ft 200 kts 281°
2026-04-25 21:21 32.76221 -117.33746 2467 ft 187 kts 290°
2026-04-25 21:21 32.76946 -117.34986 2445 ft 184 kts 323°
2026-04-25 21:21 32.78169 -117.35447 2268 ft 199 kts
2026-04-25 21:21 32.79507 -117.34927 2219 ft 210 kts 33°
2026-04-25 21:22 32.80602 -117.33761 2258 ft 214 kts 41°
2026-04-25 21:22 32.81711 -117.32553 2277 ft 216 kts 41°
2026-04-25 21:22 32.82816 -117.31366 2304 ft 217 kts 41°
2026-04-25 21:22 32.83693 -117.29937 2357 ft 214 kts 74°
2026-04-25 21:23 32.83774 -117.28194 2994 ft 213 kts 97°
2026-04-25 21:23 32.83647 -117.27026 3500 ft 218 kts 99°
2026-04-25 21:23 32.83394 -117.25197 3807 ft 229 kts 100°
2026-04-25 21:23 32.83039 -117.22773 3718 ft 223 kts 101°
2026-04-25 21:24 32.82771 -117.20966 3709 ft 221 kts 101°
2026-04-25 21:24 32.82589 -117.19748 3701 ft 221 kts 101°
2026-04-25 21:24 32.82330 -117.17968 3679 ft 220 kts 101°
2026-04-25 21:24 32.82080 -117.16168 3681 ft 223 kts 100°
2026-04-25 21:25 32.81832 -117.14351 3678 ft 222 kts 101°
2026-04-25 21:25 32.81585 -117.12537 3683 ft 222 kts 100°
2026-04-25 21:25 32.81337 -117.10749 3682 ft 219 kts 100°
2026-04-25 21:25 32.81087 -117.08950 3680 ft 221 kts 100°
2026-04-25 21:26 32.80839 -117.07137 3680 ft 221 kts 101°
2026-04-25 21:26 32.80607 -117.05318 3682 ft 222 kts 99°
2026-04-25 21:26 32.80375 -117.03505 3680 ft 222 kts 101°
2026-04-25 21:26 32.80142 -117.01703 3678 ft 220 kts 101°
2026-04-25 21:27 32.79902 -116.99898 3674 ft 220 kts 102°
2026-04-25 21:27 32.79510 -116.98173 3674 ft 216 kts 124°
2026-04-25 21:27 32.78456 -116.96993 3681 ft 209 kts 160°
2026-04-25 21:27 32.77055 -116.96731 3689 ft 203 kts 186°
2026-04-25 21:28 32.75638 -116.96897 3678 ft 205 kts 190°
2026-04-25 21:28 32.74220 -116.97121 3680 ft 206 kts 192°
2026-04-25 21:28 32.72805 -116.97339 3676 ft 204 kts 191°
2026-04-25 21:28 32.71395 -116.97548 3676 ft 205 kts 189°
2026-04-25 21:29 32.69981 -116.97773 3674 ft 205 kts 191°
2026-04-25 21:29 32.68571 -116.98001 3674 ft 204 kts 191°
2026-04-25 21:29 32.67157 -116.98236 3680 ft 206 kts 191°